TimeEDT,TemperatureF,Dew PointF,Humidity,Sea Level PressureIn,VisibilityMPH,Wind Direction,Wind SpeedMPH,Gust SpeedMPH,PrecipitationIn,Events,Conditions,WindDirDegrees,DateUTC
12:15 AM,77.0,71.6,83,30.01,10.0,SW,3.5,-,N/A,,Clear,220,2013-06-19 04:15:00
12:35 AM,77.0,71.6,83,30.00,10.0,SW,3.5,-,N/A,,Clear,220,2013-06-19 04:35:00
12:53 AM,78.1,72.0,81,29.98,-9999.0,SSW,5.8,-,N/A,,Unknown,200,2013-06-19 04:53:00
12:55 AM,77.0,71.6,83,30.00,10.0,SSW,4.6,-,N/A,,Clear,200,2013-06-19 04:55:00
1:15 AM,75.2,71.6,89,30.00,10.0,SW,4.6,-,N/A,,Clear,220,2013-06-19 05:15:00
1:35 AM,75.2,71.6,89,30.00,10.0,SW,3.5,-,N/A,,Clear,230,2013-06-19 05:35:00
1:53 AM,77.0,72.0,84,29.98,-9999.0,SSW,5.8,-,N/A,,Unknown,210,2013-06-19 05:53:00
1:55 AM,75.2,71.6,89,29.99,10.0,SSW,4.6,-,N/A,,Clear,210,2013-06-19 05:55:00
2:15 AM,75.2,71.6,89,29.99,10.0,Calm,Calm,-,N/A,,Clear,0,2013-06-19 06:15:00
2:35 AM,75.2,71.6,89,29.98,10.0,SW,3.5,-,N/A,,Clear,220,2013-06-19 06:35:00
2:53 AM,77.0,72.0,84,29.97,-9999.0,SW,5.8,-,N/A,,Unknown,220,2013-06-19 06:53:00
2:55 AM,75.2,71.6,89,29.99,10.0,SW,4.6,-,N/A,,Clear,230,2013-06-19 06:55:00
3:15 AM,75.2,71.6,89,29.99,10.0,SW,3.5,-,N/A,,Clear,230,2013-06-19 07:15:00
3:35 AM,73.4,71.6,94,29.98,10.0,WSW,4.6,-,N/A,,Clear,250,2013-06-19 07:35:00
3:53 AM,75.9,71.1,85,29.97,-9999.0,SSW,4.6,-,N/A,,Unknown,210,2013-06-19 07:53:00
3:55 AM,73.4,71.6,94,29.98,10.0,SSW,3.5,-,N/A,,Clear,210,2013-06-19 07:55:00
4:15 AM,75.2,71.6,89,29.98,10.0,SSW,3.5,-,N/A,,Clear,210,2013-06-19 08:15:00
4:35 AM,73.4,69.8,88,29.98,10.0,Calm,Calm,-,N/A,,Clear,0,2013-06-19 08:35:00
4:53 AM,77.0,72.0,84,29.97,-9999.0,Calm,Calm,-,0.01,,Unknown,0,2013-06-19 08:53:00
4:55 AM,73.4,71.6,94,29.98,10.0,Calm,Calm,-,N/A,,Clear,0,2013-06-19 08:55:00
5:15 AM,73.4,69.8,88,29.98,10.0,Calm,Calm,-,N/A,,Clear,0,2013-06-19 09:15:00
5:35 AM,71.6,69.8,94,29.99,1.8,Calm,Calm,-,N/A,,Scattered Clouds,0,2013-06-19 09:35:00
5:53 AM,73.0,70.0,90,29.97,-9999.0,Calm,Calm,-,N/A,,Unknown,0,2013-06-19 09:53:00
5:55 AM,71.6,69.8,94,29.98,5.0,Calm,Calm,-,N/A,,Scattered Clouds,0,2013-06-19 09:55:00
6:15 AM,71.6,69.8,94,29.99,5.0,SE,3.5,-,N/A,,Clear,140,2013-06-19 10:15:00
6:35 AM,71.6,69.8,94,29.99,7.0,Calm,Calm,-,N/A,,Clear,0,2013-06-19 10:35:00
6:53 AM,73.9,71.1,91,29.98,-9999.0,Calm,Calm,-,0.01,,Unknown,0,2013-06-19 10:53:00
6:55 AM,71.6,69.8,94,29.99,5.0,Calm,Calm,-,N/A,,Clear,0,2013-06-19 10:55:00
7:15 AM,71.6,69.8,94,29.99,7.0,Calm,Calm,-,N/A,,Clear,0,2013-06-19 11:15:00
7:35 AM,73.4,71.6,94,30.00,10.0,Calm,Calm,-,N/A,,Clear,0,2013-06-19 11:35:00
7:53 AM,79.0,73.0,82,29.99,-9999.0,SSW,4.6,-,N/A,,Unknown,210,2013-06-19 11:53:00
7:55 AM,77.0,73.4,89,30.01,10.0,SSW,4.6,-,N/A,,Clear,210,2013-06-19 11:55:00
8:15 AM,78.8,73.4,83,30.02,10.0,SW,5.8,-,N/A,,Clear,230,2013-06-19 12:15:00
8:35 AM,80.6,73.4,79,30.02,10.0,WSW,8.1,-,N/A,,Clear,250,2013-06-19 12:35:00
8:53 AM,82.9,72.0,69,30.01,-9999.0,SW,12.7,17.3,N/A,,Unknown,230,2013-06-19 12:53:00
8:55 AM,80.6,71.6,74,30.03,10.0,WSW,11.5,-,N/A,,Clear,250,2013-06-19 12:55:00
9:15 AM,80.6,71.6,74,30.03,10.0,SW,6.9,-,N/A,,Clear,230,2013-06-19 13:15:00
9:35 AM,80.6,71.6,74,30.03,10.0,SW,8.1,-,N/A,,Clear,220,2013-06-19 13:35:00
9:53 AM,84.9,73.0,67,30.02,-9999.0,SW,8.1,-,N/A,,Unknown,220,2013-06-19 13:53:00
9:55 AM,82.4,71.6,70,30.03,10.0,SW,8.1,-,N/A,,Clear,220,2013-06-19 13:55:00
10:15 AM,82.4,71.6,70,30.03,10.0,WSW,12.7,-,N/A,,Scattered Clouds,240,2013-06-19 14:15:00
10:35 AM,84.2,71.6,66,30.03,10.0,WSW,13.8,-,N/A,,Mostly Cloudy,240,2013-06-19 14:35:00
10:53 AM,86.0,72.0,63,30.01,-9999.0,SW,12.7,17.3,N/A,,Unknown,230,2013-06-19 14:53:00
10:55 AM,84.2,71.6,66,30.03,10.0,WSW,11.5,-,N/A,,Mostly Cloudy,240,2013-06-19 14:55:00
11:15 AM,86.0,69.8,58,30.03,10.0,WSW,9.2,16.1,N/A,,Mostly Cloudy,240,2013-06-19 15:15:00
11:35 AM,86.0,71.6,62,30.03,10.0,SW,10.4,16.1,N/A,,Mostly Cloudy,230,2013-06-19 15:35:00
11:53 AM,89.1,72.0,57,30.01,-9999.0,SW,12.7,-,N/A,,Unknown,220,2013-06-19 15:53:00
11:55 AM,87.8,71.6,58,30.03,10.0,WSW,12.7,19.6,N/A,,Scattered Clouds,240,2013-06-19 15:55:00
12:15 PM,86.0,71.6,62,30.03,10.0,WSW,12.7,19.6,N/A,,Scattered Clouds,240,2013-06-19 16:15:00
12:35 PM,87.8,71.6,58,30.02,10.0,WSW,9.2,-,N/A,,Mostly Cloudy,240,2013-06-19 16:35:00
12:53 PM,87.1,73.0,63,30.00,-9999.0,SSW,9.2,18.4,N/A,,Unknown,210,2013-06-19 16:53:00
12:55 PM,86.0,71.6,62,30.02,10.0,WSW,10.4,16.1,N/A,,Mostly Cloudy,240,2013-06-19 16:55:00
1:15 PM,87.8,71.6,58,30.01,10.0,WSW,15.0,20.7,N/A,,Mostly Cloudy,240,2013-06-19 17:15:00
1:35 PM,86.0,73.4,66,30.01,7.0,SW,12.7,18.4,N/A,Rain,Rain,230,2013-06-19 17:35:00
1:53 PM,84.9,75.9,74,29.99,-9999.0,SSW,9.2,-,0.03,,Unknown,210,2013-06-19 17:53:00
1:55 PM,82.4,75.2,79,30.00,5.0,SSW,8.1,16.1,0.02,Rain,Light Rain,210,2013-06-19 17:55:00
2:15 PM,86.0,73.4,66,30.00,10.0,SSW,9.2,-,N/A,Thunderstorm,Scattered Clouds,200,2013-06-19 18:15:00
2:35 PM,86.0,73.4,66,29.99,10.0,SSW,9.2,-,N/A,,Scattered Clouds,200,2013-06-19 18:35:00
2:53 PM,90.0,73.9,59,29.97,-9999.0,SSW,12.7,-,N/A,,Unknown,210,2013-06-19 18:53:00
2:55 PM,87.8,71.6,58,29.99,10.0,SW,8.1,-,N/A,,Scattered Clouds,230,2013-06-19 18:55:00
3:35 PM,87.8,71.6,58,29.98,10.0,WSW,11.5,-,N/A,,Scattered Clouds,240,2013-06-19 19:35:00
3:53 PM,90.0,73.9,59,29.96,-9999.0,WSW,11.5,-,N/A,,Unknown,240,2013-06-19 19:53:00
3:55 PM,87.8,71.6,58,29.98,10.0,SW,12.7,16.1,N/A,,Scattered Clouds,230,2013-06-19 19:55:00
4:15 PM,87.8,71.6,58,29.97,10.0,SSW,9.2,-,N/A,Thunderstorm,Scattered Clouds,200,2013-06-19 20:15:00
4:35 PM,87.8,71.6,58,29.97,10.0,SW,10.4,-,N/A,Thunderstorm,Thunderstorm,220,2013-06-19 20:35:00
4:53 PM,89.1,72.0,57,29.96,-9999.0,SW,11.5,18.4,N/A,,Unknown,230,2013-06-19 20:53:00
4:55 PM,87.8,71.6,58,29.97,10.0,WSW,12.7,-,N/A,Thunderstorm,Thunderstorm,240,2013-06-19 20:55:00
5:15 PM,87.8,71.6,58,29.97,10.0,WSW,9.2,-,N/A,Thunderstorm,Scattered Clouds,240,2013-06-19 21:15:00
5:35 PM,87.8,71.6,58,29.97,10.0,WSW,10.4,17.3,N/A,Thunderstorm,Clear,240,2013-06-19 21:35:00
5:53 PM,89.1,72.0,57,29.95,-9999.0,SW,12.7,-,N/A,,Unknown,230,2013-06-19 21:53:00
5:55 PM,87.8,71.6,58,29.97,10.0,WSW,12.7,-,N/A,,Scattered Clouds,240,2013-06-19 21:55:00
6:15 PM,86.0,71.6,62,29.97,10.0,SSW,10.4,-,N/A,,Clear,210,2013-06-19 22:15:00
6:35 PM,86.0,71.6,62,29.97,10.0,SW,10.4,-,N/A,,Clear,230,2013-06-19 22:35:00
6:53 PM,86.0,72.0,63,29.96,-9999.0,WSW,9.2,-,N/A,,Unknown,240,2013-06-19 22:53:00
6:55 PM,86.0,71.6,62,29.98,10.0,WSW,10.4,16.1,N/A,,Clear,250,2013-06-19 22:55:00
7:15 PM,84.2,71.6,66,29.97,10.0,SSW,10.4,-,N/A,,Clear,210,2013-06-19 23:15:00
7:35 PM,82.4,71.6,70,29.97,10.0,WSW,12.7,16.1,N/A,,Clear,240,2013-06-19 23:35:00
7:53 PM,84.0,73.9,72,29.96,-9999.0,SW,6.9,-,N/A,,Unknown,220,2013-06-19 23:53:00
7:55 PM,82.4,73.4,74,29.98,10.0,SW,8.1,-,N/A,,Clear,230,2013-06-19 23:55:00
8:15 PM,80.6,73.4,79,29.99,10.0,SW,6.9,-,N/A,,Clear,230,2013-06-20 00:15:00
8:35 PM,80.6,73.4,79,29.99,10.0,SSW,4.6,-,N/A,,Clear,210,2013-06-20 00:35:00
8:53 PM,82.0,73.9,76,29.98,-9999.0,South,5.8,-,N/A,,Unknown,180,2013-06-20 00:53:00
8:55 PM,80.6,73.4,79,30.00,10.0,South,5.8,-,N/A,,Clear,190,2013-06-20 00:55:00
9:15 PM,78.8,73.4,83,30.00,10.0,South,4.6,-,N/A,,Scattered Clouds,170,2013-06-20 01:15:00
9:35 PM,78.8,73.4,83,30.01,10.0,SSW,6.9,-,N/A,,Mostly Cloudy,200,2013-06-20 01:35:00
9:53 PM,81.0,73.9,79,30.00,-9999.0,SSW,6.9,-,N/A,,Unknown,200,2013-06-20 01:53:00
9:55 PM,78.8,73.4,83,30.01,10.0,SSW,6.9,-,N/A,Thunderstorm,Mostly Cloudy,210,2013-06-20 01:55:00
10:15 PM,80.6,73.4,79,30.02,10.0,SSW,3.5,-,N/A,Thunderstorm,Mostly Cloudy,200,2013-06-20 02:15:00
10:35 PM,77.0,68.0,74,30.05,10.0,NE,11.5,17.3,N/A,Thunderstorm,Thunderstorm,50,2013-06-20 02:35:00
10:53 PM,73.9,66.9,79,30.04,-9999.0,ENE,12.7,25.3,N/A,,Unknown,60,2013-06-20 02:53:00
10:55 PM,71.6,66.2,83,30.06,7.0,ENE,9.2,19.6,N/A,Rain-Thunderstorm,Light Thunderstorms and Rain,70,2013-06-20 02:55:00
11:15 PM,69.8,68.0,94,30.05,1.5,ESE,3.5,-,0.20,Rain,Heavy Rain,110,2013-06-20 03:15:00
11:35 PM,71.6,68.0,88,30.06,10.0,SSE,3.5,-,0.20,,Overcast,150,2013-06-20 03:35:00
11:53 PM,72.0,69.1,91,30.04,-9999.0,SE,3.5,-,0.23,,Unknown,140,2013-06-20 03:53:00
11:55 PM,69.8,68.0,94,30.05,5.0,Calm,Calm,-,0.20,,Scattered Clouds,0,2013-06-20 03:55:00